Tracking 27420 objects as of 28-May-2023
HD Live streaming from Space Station
objects crossing your sky now

CZ-4 DEB

Track CZ-4 DEB now!
10-day predictions


NORAD ID: 20853
Int'l Code: 1990-081R
Perigee: 738.6 km
Apogee: 773.8 km
Inclination: 98.2 °
Period: 99.8 minutes
Semi major axis: 7127 km
RCS: 0.6316 m2 (medium)
Launch date: September 3, 1990
Source: People's Republic of China (PRC)
Launch site: Taiyaun Space Center, China (TSC)

Note: This is SATELLITE DEBRIS
Your satellite tracking list
Your tracking list is empty




NASA's NSSDC Master Catalog

Two Line Element Set (TLE):
1 20853U 90081R   23148.01322944  .00003702  00000-0  11168-2 0  9990
2 20853  98.2423 157.0279 0024630 118.8717 295.4239 14.42860386696385
Source of the keplerian elements: AFSPC